EW2642 Weather Reports


Display with metric or nautical units.
time (UTC)temp
F
wind
direction
speed
MPH
gust
MPH
rain 1hr
in
rain 24hr
in
rain mn
in
humidity
%
barometer
mb
20260906143007 68 227 0.0 2.0 0.00 0.00 0.00 62 852.5
20260906141510 67 227 0.0 2.0 0.00 0.00 0.00 63 852.5
20260906140006 66 227 0.0 2.0 0.00 0.00 0.00 63 852.2
20260906134511 65 227 1.0 2.0 0.00 0.00 0.00 63 852.2
20260906133021 65 227 1.0 3.0 0.00 0.00 0.00 66 852.2
20260906131509 65 221 1.0 3.0 0.00 0.00 0.00 65 851.8
20260906130009 65 205 0.0 3.0 0.00 0.00 0.00 64 851.7
20260906124535 66 152 0.0 3.0 0.00 0.00 0.00 64 851.6
20260906123049 66 152 0.0 1.0 0.00 0.00 0.00 63 851.5
20260906121532 66 152 0.0 2.0 0.00 0.00 0.00 62 851.6
20260906120033 66 152 0.0 2.0 0.00 0.00 0.00 61 851.6
20260906114534 66 230 0.0 3.0 0.00 0.00 0.00 61 851.6
20260906113035 67 230 1.0 2.0 0.00 0.00 0.00 61 851.4
20260906111534 67 229 2.0 3.0 0.00 0.00 0.00 60 851.4
20260906110032 67 216 1.0 4.0 0.00 0.00 0.00 59 851.4
20260906104534 67 221 1.0 3.0 0.00 0.00 0.00 62 851.4
20260906103040 67 221 1.0 3.0 0.00 0.00 0.00 60 851.4
20260906101532 67 220 1.0 3.0 0.00 0.00 0.00 60 851.4
20260906100003 67 220 1.0 3.0 0.00 0.00 0.00 62 851.4
20260906094505 67 200 2.0 4.0 0.00 0.00 0.00 59 851.3
20260906093006 68 209 1.0 2.0 0.00 0.00 0.00 58 851.4
20260906091506 69 209 0.0 1.0 0.00 0.00 0.00 58 851.5
20260906090024 70 209 0.0 2.0 0.00 0.00 0.00 55 851.5
20260906084508 70 209 1.0 3.0 0.00 0.00 0.00 55 851.6
20260906083008 69 193 0.0 4.0 0.00 0.00 0.00 55 851.6
20260906081512 69 221 0.0 2.0 0.00 0.00 0.00 57 851.8
20260906080008 69 221 1.0 3.0 0.00 0.00 0.00 59 851.9
20260906074510 68 221 1.0 2.0 0.00 0.00 0.00 61 851.8
20260906073008 68 221 1.0 3.0 0.00 0.00 0.00 61 852.0
20260906071512 68 228 1.0 3.0 0.00 0.00 0.00 61 852.0
20260906070008 69 228 1.0 3.0 0.00 0.00 0.00 64 852.1
20260906064511 69 146 0.0 1.0 0.00 0.00 0.00 63 852.0
20260906063010 69 146 1.0 2.0 0.00 0.00 0.00 62 851.9
20260906061510 69 146 0.0 2.0 0.00 0.00 0.00 59 852.0
20260906060014 69 146 1.0 3.0 0.00 0.00 0.00 61 852.2
20260906054508 70 142 1.0 4.0 0.00 0.00 0.00 62 852.2
20260906053010 70 157 2.0 4.0 0.00 0.00 0.00 61 852.3
20260906051508 71 177 2.0 5.0 0.00 0.00 0.00 59 852.2
20260906050012 71 181 2.0 4.0 0.00 0.00 0.00 59 852.2
20260906044512 71 207 1.0 3.0 0.00 0.00 0.00 61 852.2
20260906043010 71 186 1.0 4.0 0.00 0.00 0.00 59 852.1
20260906041508 72 137 1.0 3.0 0.00 0.00 0.00 59 852.1
20260906040022 72 137 0.0 2.0 0.00 0.00 0.00 59 852.2
20260906034511 72 106 0.0 3.0 0.00 0.00 0.00 58 851.9
20260906033010 72 134 1.0 3.0 0.00 0.00 0.00 54 851.9
20260906031525 73 126 2.0 4.0 0.00 0.00 0.00 52 851.8
20260906030022 74 222 2.0 4.0 0.00 0.00 0.00 48 851.8
20260906024524 75 219 2.0 5.0 0.00 0.00 0.00 47 851.5
20260906023024 75 198 2.0 5.0 0.00 0.00 0.00 48 851.5
20260906021521 76 209 1.0 3.0 0.00 0.00 0.00 47 851.4
20260906020024 76 209 1.0 3.0 0.00 0.00 0.00 48 851.5
20260906014529 77 214 1.0 4.0 0.00 0.00 0.00 47 851.6
20260906013035 77 178 3.0 6.0 0.00 0.00 0.00 46 851.6
20260906011527 78 189 4.0 7.0 0.00 0.00 0.00 45 851.7
20260906010030 78 202 7.0 11.0 0.00 0.00 0.00 44 851.8
20260906004526 79 184 10.0 15.0 0.00 0.00 0.00 45 851.8
20260906003028 80 143 10.0 22.0 0.00 0.00 0.00 44 851.8
20260906001529 81 178 10.0 19.0 0.00 0.00 0.00 42 851.6
20260906000030 80 219 6.0 16.0 0.00 0.00 0.00 42 851.8
20260905234527 80 191 8.0 15.0 0.00 0.00 0.00 41 851.7
20260905233035 80 186 6.0 13.0 0.00 0.00 0.00 40 851.7
20260905231530 80 161 7.0 14.0 0.00 0.00 0.00 41 851.7
20260905230009 79 160 8.0 15.0 0.00 0.00 0.00 43 851.8
20260905224510 79 167 12.0 20.0 0.00 0.00 0.00 46 851.9
20260905223013 80 171 13.0 22.0 0.00 0.00 0.00 44 851.8
20260905221512 82 222 8.0 17.0 0.00 0.00 0.00 39 851.8
20260905220010 82 198 8.0 15.0 0.00 0.00 0.00 38 851.8
20260905214510 83 180 12.0 21.0 0.00 0.00 0.00 36 851.8
20260905213014 84 215 7.0 13.0 0.00 0.00 0.00 35 851.9
20260905211510 84 252 8.0 14.0 0.00 0.00 0.00 34 852.1
20260905210013 85 260 7.0 16.0 0.00 0.00 0.00 32 852.1
20260905204512 86 179 8.0 18.0 0.00 0.00 0.00 31 852.2
20260905203011 85 173 9.0 15.0 0.00 0.00 0.00 32 852.3
20260905201512 84 219 9.0 15.0 0.00 0.00 0.00 31 852.4
20260905200010 84 204 7.0 14.0 0.00 0.00 0.00 30 852.5
20260905194513 85 229 10.0 14.0 0.00 0.00 0.00 29 852.6
20260905193011 85 170 6.0 17.0 0.00 0.00 0.00 29 852.7
20260905191510 85 197 4.0 12.0 0.00 0.00 0.00 29 852.7
20260905190018 85 275 7.0 14.0 0.00 0.00 0.00 28 852.9
20260905184513 86 225 6.0 18.0 0.00 0.00 0.00 27 853.0
20260905183014 85 145 7.0 11.0 0.00 0.00 0.00 31 853.1
20260905181519 84 115 8.0 13.0 0.00 0.00 0.00 31 853.1
20260905180013 83 118 4.0 14.0 0.00 0.00 0.00 35 853.2
20260905174536 83 132 9.0 16.0 0.00 0.00 0.00 35 853.2
20260905173037 82 85 5.0 12.0 0.00 0.00 0.00 36 853.3
20260905171538 81 138 7.0 13.0 0.00 0.00 0.00 35 853.4
20260905170036 80 135 6.0 15.0 0.00 0.00 0.00 38 853.4
20260905164542 79 108 7.0 14.0 0.00 0.00 0.00 40 853.3
20260905163039 79 142 10.0 13.0 0.00 0.00 0.00 40 853.2
20260905161534 78 114 10.0 14.0 0.00 0.00 0.00 42 853.2
20260905160033 77 118 9.0 15.0 0.00 0.00 0.00 44 853.2
20260905154539 76 134 9.0 12.0 0.00 0.00 0.00 45 853.1
20260905153033 74 141 6.0 10.0 0.00 0.00 0.00 46 853.2
20260905151536 72 121 6.0 9.0 0.00 0.00 0.00 47 853.1
20260905150041 70 111 4.0 6.0 0.00 0.00 0.00 49 853.1
20260905144537 67 119 1.0 4.0 0.00 0.00 0.00 54 853.2